Location: Aufkirchen
(47.9603°N, 11.3653°E)
Time: 11:20:29
(UTC+02:00)

Altair - Pass Details

Date: 04 August 2021
Orbit: 1501 x 1682 km, 47.2° (Epoch: 18 September)

Event Time Altitude Azimuth Distance (km) Brightness Sun altitude
Exits shadow 02:47:42 31° 225° (SW) 2,472 8.1 -22.0°
Maximum altitude 02:52:41 64° 155° (SSE) 1,666 7.4 -21.6°
Drops below altitude 10° 03:01:44 10° 77° (ENE) 3,663 10.0 -21.0°
Sets 03:04:45 0° 74° (ENE) 4,639 10.6 -20.8°
